| time (UTC) | temp C | wind direction | speed KPH | gust KPH | rain 1hr cm | rain 24hr cm | rain mn cm | humidity % | barometer mb |
| 20260507030840 | 6 | 194 | 6.4 | 6.4 | 0.00 | 1.22 | 1.22 | 87 | 1000.1 |
| 20260507025337 | 6 | 201 | 6.4 | 6.4 | 0.00 | 1.22 | 1.22 | 86 | 1000.0 |
| 20260507023834 | 6 | 242 | 6.4 | 6.4 | 0.00 | 1.22 | 1.22 | 85 | 1000.0 |
| 20260507022329 | 6 | 208 | 6.4 | 12.9 | 0.00 | 1.22 | 1.22 | 85 | 1000.2 |
| 20260507020825 | 6 | 199 | 8.0 | 11.3 | 0.00 | 1.22 | 1.22 | 86 | 1000.4 |
| 20260507015322 | 6 | 235 | 4.8 | 6.4 | 0.00 | 1.22 | 1.22 | 87 | 1000.4 |
| 20260507013817 | 6 | 159 | 4.8 | 4.8 | 0.00 | 1.22 | 1.22 | 87 | 1000.3 |
| 20260507012314 | 6 | 242 | 4.8 | 6.4 | 0.00 | 1.22 | 1.22 | 88 | 1000.2 |
| 20260507010813 | 6 | 148 | 3.2 | 4.8 | 0.00 | 1.22 | 1.22 | 88 | 1000.2 |
| 20260507005309 | 6 | 191 | 6.4 | 9.7 | 0.00 | 1.22 | 1.22 | 87 | 1000.4 |
| 20260507003806 | 6 | 149 | 1.6 | 1.6 | 0.00 | 1.22 | 1.22 | 88 | 999.9 |
| 20260507002306 | 6 | 176 | 4.8 | 4.8 | 0.00 | 1.22 | 1.22 | 87 | 999.8 |
| 20260507000802 | 7 | 143 | 1.6 | 1.6 | 0.00 | 1.22 | 1.22 | 86 | 999.4 |
| 20260506235256 | 7 | 159 | 3.2 | 3.2 | 0.00 | 1.22 | 1.22 | 83 | 999.3 |
| 20260506233754 | 7 | 122 | 0.0 | 0.0 | 0.00 | 1.22 | 1.22 | 82 | 999.0 |
| 20260506232253 | 7 | 147 | 1.6 | 1.6 | 0.00 | 1.22 | 1.22 | 81 | 999.3 |
| 20260506230751 | 8 | 151 | 1.6 | 1.6 | 0.00 | 1.22 | 1.22 | 80 | 999.1 |
| 20260506225248 | 8 | 139 | 1.6 | 1.6 | 0.00 | 1.22 | 1.22 | 78 | 999.1 |
| 20260506223743 | 8 | 174 | 3.2 | 3.2 | 0.00 | 1.22 | 1.22 | 77 | 999.0 |
| 20260506222238 | 8 | 175 | 3.2 | 3.2 | 0.00 | 1.22 | 1.22 | 75 | 999.0 |
| 20260506220737 | 8 | 174 | 3.2 | 3.2 | 0.00 | 1.22 | 1.22 | 76 | 999.0 |
| 20260506215236 | 8 | 158 | 3.2 | 3.2 | 0.00 | 1.22 | 1.22 | 77 | 999.1 |
| 20260506213734 | 8 | 163 | 3.2 | 3.2 | 0.00 | 1.22 | 1.22 | 78 | 998.9 |
| 20260506212229 | 8 | 358 | 6.4 | 6.4 | 0.00 | 1.22 | 1.22 | 78 | 998.7 |
| 20260506210724 | 8 | 23 | 4.8 | 4.8 | 0.00 | 1.22 | 1.22 | 77 | 998.5 |
| 20260506205219 | 8 | 65 | 3.2 | 3.2 | 0.00 | 1.22 | 1.22 | 78 | 998.7 |
| 20260506203718 | 8 | 351 | 4.8 | 4.8 | 0.00 | 1.22 | 1.22 | 77 | 998.5 |
| 20260506202214 | 8 | 55 | 3.2 | 4.8 | 0.00 | 1.22 | 1.22 | 79 | 998.6 |
| 20260506200711 | 8 | 68 | 4.8 | 4.8 | 0.00 | 1.22 | 1.22 | 81 | 998.4 |
| 20260506195206 | 8 | 68 | 4.8 | 4.8 | 0.00 | 1.22 | 1.22 | 83 | 998.5 |
| 20260506193704 | 7 | 65 | 4.8 | 4.8 | 0.00 | 1.22 | 1.22 | 84 | 998.3 |
| 20260506192159 | 7 | 44 | 6.4 | 6.4 | 0.00 | 1.22 | 1.22 | 85 | 998.5 |
| 20260506190656 | 7 | 33 | 4.8 | 4.8 | 0.00 | 1.22 | 1.22 | 83 | 998.6 |
| 20260506185152 | 7 | 78 | 3.2 | 3.2 | 0.00 | 1.22 | 1.22 | 84 | 998.6 |
| 20260506183649 | 7 | 40 | 8.0 | 14.5 | 0.00 | 1.22 | 1.22 | 85 | 998.5 |
| 20260506182145 | 7 | 67 | 6.4 | 9.7 | 0.00 | 1.22 | 1.22 | 87 | 998.3 |
| 20260506180643 | 7 | 41 | 11.3 | 11.3 | 0.00 | 1.22 | 1.22 | 87 | 998.5 |
| 20260506175138 | 7 | 47 | 12.9 | 14.5 | 0.00 | 1.22 | 1.22 | 89 | 998.3 |
| 20260506173637 | 7 | 58 | 3.2 | 4.8 | 0.00 | 1.22 | 1.22 | 88 | 998.0 |
| 20260506172132 | 7 | 42 | 8.0 | 9.7 | 0.00 | 1.22 | 1.22 | 88 | 997.9 |
| 20260506170631 | 7 | 33 | 6.4 | 11.3 | 0.00 | 1.22 | 1.22 | 90 | 998.1 |
| 20260506165127 | 7 | 81 | 4.8 | 6.4 | 0.00 | 1.22 | 1.22 | 90 | 998.1 |
| 20260506163623 | 7 | 34 | 8.0 | 11.3 | 0.00 | 1.22 | 1.22 | 91 | 998.2 |
| 20260506162122 | 6 | 46 | 6.4 | 4.8 | 0.00 | 1.22 | 1.22 | 91 | 998.7 |
| 20260506160619 | 6 | 27 | 8.0 | 12.9 | 0.18 | 1.22 | 1.22 | 92 | 998.5 |
| 20260506155116 | 6 | 91 | 3.2 | 6.4 | 0.00 | 1.19 | 1.19 | 93 | 998.8 |
| 20260506152732 | 6 | 80 | 4.8 | 4.8 | 0.13 | 1.19 | 1.19 | 93 | 998.5 |
| 20260506151231 | 6 | 72 | 4.8 | 4.8 | 0.00 | 1.17 | 1.17 | 92 | 998.7 |
| 20260506145727 | 6 | 54 | 6.4 | 9.7 | 0.00 | 1.17 | 1.17 | 92 | 998.5 |
| 20260506144224 | 6 | 55 | 6.4 | 9.7 | 0.00 | 1.17 | 1.17 | 92 | 998.2 |
| 20260506142723 | 6 | 69 | 3.2 | 3.2 | 0.00 | 1.14 | 1.14 | 94 | 998.4 |
| 20260506141223 | 6 | 39 | 6.4 | 9.7 | 0.13 | 1.14 | 1.14 | 93 | 998.5 |
| 20260506135719 | 6 | 69 | 6.4 | 11.3 | 0.00 | 1.12 | 1.12 | 93 | 998.5 |
| 20260506134215 | 6 | 78 | 3.2 | 4.8 | 0.00 | 1.09 | 1.09 | 94 | 998.8 |
| 20260506132712 | 6 | 68 | 8.0 | 9.7 | 0.13 | 1.07 | 1.07 | 94 | 998.3 |
| 20260506131208 | 6 | 89 | 3.2 | 3.2 | 0.00 | 1.04 | 1.04 | 94 | 998.4 |
| 20260506125706 | 6 | 82 | 3.2 | 3.2 | 0.00 | 1.02 | 1.02 | 94 | 998.5 |
| 20260506124205 | 5 | 84 | 3.2 | 6.4 | 0.13 | 1.02 | 1.02 | 94 | 998.4 |
| 20260506122703 | 6 | 65 | 8.0 | 9.7 | 0.18 | 0.99 | 0.99 | 94 | 998.3 |
| 20260506121200 | 6 | 81 | 3.2 | 3.2 | 0.13 | 0.97 | 0.97 | 93 | 998.5 |
| 20260506115659 | 5 | 58 | 3.2 | 3.2 | 0.18 | 0.94 | 0.94 | 94 | 999.0 |
| 20260506114158 | 6 | 101 | 1.6 | 3.2 | 0.13 | 0.91 | 0.91 | 94 | 998.7 |
| 20260506112655 | 6 | 90 | 3.2 | 3.2 | 0.18 | 0.89 | 0.89 | 94 | 999.1 |
| 20260506111153 | 6 | 96 | 1.6 | 1.6 | 0.00 | 0.84 | 0.84 | 95 | 999.2 |
| 20260506105650 | -17 | 0.0 | 0.0 | 0.00 | 0.00 | 0.00 | 998.8 | ||
| 20260506104149 | -17 | 0.0 | 0.0 | 0.00 | 0.00 | 0.00 | 998.7 | ||
| 20260506102646 | -17 | 0.0 | 0.0 | 0.00 | 0.00 | 0.00 | 999.1 | ||
| 20260506101143 | -17 | 0.0 | 0.0 | 0.00 | 0.00 | 0.00 | 999.1 | ||
| 20260506095638 | -17 | 0.0 | 0.0 | 0.00 | 0.00 | 0.00 | 999.1 | ||
| 20260506094135 | -17 | 0.0 | 0.0 | 0.00 | 0.00 | 0.00 | 998.6 | ||
| 20260506092634 | -17 | 0.0 | 0.0 | 0.00 | 0.00 | 0.00 | 998.6 | ||
| 20260506091131 | 6 | 117 | 0.0 | 0.0 | 0.18 | 0.43 | 0.43 | 95 | 998.5 |
| 20260506085628 | 6 | 134 | 0.0 | 0.0 | 0.18 | 0.38 | 0.38 | 95 | 998.9 |
| 20260506084124 | 6 | 134 | 0.0 | 0.0 | 0.00 | 0.36 | 0.36 | 95 | 999.2 |
| 20260506082620 | 6 | 134 | 0.0 | 0.0 | 0.00 | 0.33 | 0.33 | 95 | 998.7 |
| 20260506081118 | 6 | 123 | 1.6 | 0.0 | 0.00 | 0.33 | 0.33 | 95 | 998.9 |
| 20260506072609 | 6 | 129 | 1.6 | 1.6 | 0.00 | 0.33 | 0.33 | 95 | 998.9 |
| 20260506071108 | 6 | 118 | 0.0 | 0.0 | 0.89 | 0.33 | 0.33 | 94 | 999.0 |
| 20260506061101 | 6 | 141 | 0.0 | 1.6 | 0.48 | 0.18 | 0.18 | 93 | 998.7 |
| 20260506051051 | 6 | 149 | 3.2 | 3.2 | 0.18 | 0.10 | 0.10 | 94 | 999.6 |
| 20260506044046 | 7 | 168 | 3.2 | 3.2 | 0.00 | 0.05 | 0.05 | 94 | 1000.0 |
| 20260506042546 | 7 | 147 | 1.6 | 1.6 | 0.00 | 0.03 | 0.03 | 93 | 999.8 |
| 20260506041044 | 7 | 154 | 3.2 | 3.2 | 0.13 | 0.03 | 0.03 | 92 | 999.8 |
| 20260506035541 | 7 | 194 | 9.7 | 11.3 | 0.18 | 1.88 | 1.88 | 93 | 999.8 |
| 20260506034037 | -17 | 0.0 | 0.0 | 0.00 | 0.00 | 0.00 | 999.9 | ||
| 20260506032535 | 7 | 185 | 6.4 | 9.7 | 0.30 | 1.85 | 1.85 | 93 | 999.9 |